Terminal Aerodrome Forecast
Issued by NWS Green Bay, WI

Home | Current Version | Previous Version | Graphics & Text | Print | Product List | Glossary On
Versions: 1 2 3 4 5 6 7 8 9 10 11 12 13 14 15 16 17 18 19 20 21 22 23 24 25 26 27 28 29 30 31 32 33 34 35 36 37 38 39
000
FTUS43 KGRB 010100 AAA
TAFGRB
TAF AMD
KGRB 010104Z 0101/0124 04012G20KT P6SM SCT060
     FM010300 04005KT P6SM SCT100
     FM011400 14009KT P6SM BKN090
     FM011900 15014G23KT P6SM SCT150=

USA.gov is the U.S. government's official web portal to all federal, state and local government web resources and services.